Flag for U.S.A. Weather past 2 weeks in Lexington, North Carolina, U.S.A.

Now
35 °F

Clear.


Feels Like: 35 °F
Forecast: 31 / 54 °F
Wind: No wind

Location: Davidson County Airport

Current Time: Feb 1, 2015 at 1:30:21 AM

Latest Report: Feb 1, 2015 at 12:55 AM


Visibility: 10 mi

Pressure: 30.25 "Hg

Humidity: 52%

Dew point: 19 °F

Location of LexingtonLocation

Historic Weather in Lexington — Graph

°F

Lexington temperature yesterday

Maximum temperature yesterday: 50 °F (at 4:15 PM)
Minimum temperature yesterday: 17 °F (at 6:55 AM)
Average temperature yesterday: 32 °F

Past Weeks' High & Low Weather Summary

 TemperatureHumidityPressure
High67 °F (Jan 20, 2:15 PM)98% (Jan 18, 4:55 AM)30.38 "Hg (Jan 18, 4:55 AM)
Low17 °F (Jan 31, 6:55 AM)15% (Jan 31, 4:55 PM)29.56 "Hg (Jan 24, 5:35 AM)
Average40 °F61%30.03 "Hg
* Reported Jan 17 12:15 AM — Feb 1 12:15 AM, Lexington, Weather by CustomWeather, © 2014

Note: Actual official high and low records may vary slightly from our data, if they occured in-between our weather recording intervals... More about our weather records

Advertising

Lexington weather history for previous 24 hours

 ConditionsComfort  
Time TempWeatherWind HumidityBarometerVisibility
12:15 AM
Feb 1
35 °FClear.No wind52%30.25 "Hg10 mi
11:55 PM
Jan 31
37 °FClear.No wind41%30.25 "Hg10 mi
11:15 PM36 °FClear.No wind45%30.26 "Hg10 mi
10:55 PM34 °FClear.No wind50%30.26 "Hg10 mi
10:15 PM35 °FClear.No wind45%30.26 "Hg10 mi
9:55 PM34 °FClear.No wind44%30.27 "Hg10 mi
9:15 PM35 °FClear.No wind39%30.28 "Hg10 mi
8:55 PM35 °FClear.No wind44%30.28 "Hg10 mi
8:15 PM36 °FClear.No wind33%30.29 "Hg10 mi
7:55 PM37 °FClear.No wind32%30.29 "Hg10 mi
7:15 PM39 °FClear.No wind26%30.28 "Hg10 mi
6:55 PM40 °FClear.No wind28%30.28 "Hg10 mi
6:35 PM42 °FClear.No wind22%30.28 "Hg10 mi
6:15 PM43 °FClear.No wind22%30.27 "Hg10 mi
5:55 PM44 °FClear.No wind19%30.27 "Hg10 mi
5:15 PM48 °FSunny.No wind15%30.26 "Hg10 mi
4:55 PM49 °FSunny.3 mph15%30.27 "Hg10 mi
4:15 PM50 °FSunny.No wind16%30.27 "Hg10 mi
3:55 PM50 °FSunny.3 mph16%30.27 "Hg10 mi
3:15 PM49 °FSunny.No wind16%30.28 "Hg10 mi
2:55 PM48 °FSunny.3 mph17%30.29 "Hg10 mi
2:15 PM47 °FSunny.No wind19%30.30 "Hg10 mi
1:55 PM46 °FSunny.3 mph19%30.30 "Hg10 mi
1:35 PM45 °FSunny.No wind20%30.31 "Hg10 mi
1:15 PM44 °FSunny.5 mph19%30.32 "Hg10 mi
12:55 PM43 °FSunny.No wind22%30.33 "Hg10 mi
12:35 PM42 °FSunny.No wind25%30.34 "Hg10 mi
12:15 PM41 °FSunny.5 mph23%30.35 "Hg10 mi
11:55 AM39 °FSunny.3 mph27%30.36 "Hg10 mi
11:35 AM37 °FSunny.No wind30%30.37 "Hg10 mi
11:15 AM36 °FSunny.No wind32%30.38 "Hg10 mi
10:15 AM33 °FSunny.3 mph41%30.38 "Hg10 mi
9:55 AM32 °FSunny.3 mph45%30.37 "Hg10 mi
9:35 AM31 °FSunny.No wind44%30.36 "Hg10 mi
9:15 AM29 °FSunny.No wind51%30.35 "Hg10 mi
8:55 AM26 °FSunny.No wind60%30.35 "Hg10 mi
8:35 AM22 °FSunny.No wind75%30.34 "Hg10 mi
8:15 AM19 °FSunny.No wind84%30.34 "Hg10 mi
7:55 AM19 °FSunny.No wind79%30.33 "Hg10 mi
7:35 AM18 °FSunny.No wind82%30.33 "Hg10 mi
7:15 AM17 °FClear.No wind86%30.32 "Hg10 mi
6:55 AM17 °FClear.No wind86%30.32 "Hg10 mi
6:35 AM19 °FClear.No wind78%30.32 "Hg10 mi
6:15 AM18 °FClear.No wind83%30.31 "Hg10 mi
5:55 AM19 °FClear.No wind74%30.31 "Hg10 mi
5:35 AM18 °FClear.No wind75%30.31 "Hg10 mi
5:15 AM19 °FClear.No wind73%30.31 "Hg10 mi
4:55 AM20 °FClear.No wind72%30.31 "Hg10 mi
4:35 AM21 °FClear.No wind72%30.31 "Hg10 mi
4:15 AM19 °FClear.No wind71%30.30 "Hg10 mi
3:55 AM19 °FClear.No wind73%30.31 "Hg10 mi
3:35 AM22 °FClear.No wind64%30.31 "Hg10 mi
3:15 AM23 °FClear.No wind62%30.31 "Hg10 mi
2:55 AM22 °FClear.No wind62%30.32 "Hg10 mi
2:15 AM24 °FClear.No wind57%30.32 "Hg10 mi
1:55 AM24 °FClear.No wind54%30.31 "Hg10 mi
1:35 AM26 °FClear.No wind51%30.31 "Hg10 mi
1:15 AM26 °FClear.No wind47%30.30 "Hg10 mi
Weather by CustomWeather, © 2014

See weather overviewHow to use our weather pages